Regional Weather Roundup
Issued by NWS

Home | Current Version | Previous Version | Graphics & Text | Print | Product List | Glossary On
Versions: 1 2 3 4 5 6 7 8 9 10 11 12 13 14 15 16 17 18 19 20 21 22 23 24 25 26 27 28 29 30 31 32 33 34 35 36 37 38 39 40 41 42 43 44 45 46 47 48 49 50
000
ASUS43 KLSX 230607
RWRMO

WEATHER SUMMARY FOR MISSOURI
NATIONAL WEATHER SERVICE SPRINGFIELD MO
100 AM CDT WED JUL 23 2014

NOTE: "FAIR" INDICATES FEW OR NO CLOUDS BELOW 12,000 FEET WITH NO
       SIGNIFICANT WEATHER AND/OR OBSTRUCTIONS TO VISIBILITY.
       CURRENT SKY AND/OR WEATHER CONDITIONS ARE NOT AVAILABLE FOR
       CHILLICOTHE AND FARMINGTON.

MOZ001>031-035>038-043-044-053-054-230700-
...NORTHERN AND WESTERN MISSOURI...

CITY           SKY/WX    TMP DP  RH WIND       PRES   REMARKS
KANSAS CTY INT MOCLDY    81  73  76 NE14      30.10R
6HR MIN TEMP:  80; 6HR MAX TEMP:  95;

KANSAS C DTWN  CLOUDY    84  74  71 NE9       30.08R HX  91
6HR MIN TEMP:  84; 6HR MAX TEMP:  97;

LEE`S SUMMIT   CLEAR     83  77  82 N10       30.09R HX  92
6HR MIN TEMP:  81; 6HR MAX TEMP:  94;

ST JOSEPH      CLEAR     77  70  79 N13       30.12R
6HR MIN TEMP:  77; 6HR MAX TEMP:  92;

CHILLICOTHE      N/A     81  70  69 N9        30.10R
6HR MIN TEMP:  81; 6HR MAX TEMP:  94;

KIRKSVILLE     PTCLDY    77  71  82 N9        30.10R
6HR MIN TEMP:  77; 6HR MAX TEMP:  91; 6HR PCP:  0.04;


$$
MOZ066>068-077>081-088>096-101>105-230700-
...SOUTHWEST MISSOURI...

CITY           SKY/WX    TMP DP  RH WIND       PRES   REMARKS
SPRINGFIELD    PTCLDY    79  75  87 S3        30.09R
6HR MIN TEMP:  79; 6HR MAX TEMP:  90;

JOPLIN         CLEAR     82  75  79 SW6       30.08R
6HR MIN TEMP:  81; 6HR MAX TEMP:  93;


$$
MOZ032>034-039>042-045>050-055>058-069>072-230700-
...CENTRAL MISSOURI...

CITY           SKY/WX    TMP DP  RH WIND       PRES   REMARKS
COLUMBIA       CLEAR     80  78  94 NW5       30.04R
6HR MIN TEMP:  78; 6HR MAX TEMP:  92;

JEFFERSON CITY PTCLDY    80  77  90 CALM      30.00S
6HR MIN TEMP:  79; 6HR MAX TEMP:  93;

ROLLA          MOCLDY    79  73  82 S9        30.04S
6HR MIN TEMP:  79; 6HR MAX TEMP:  90;

SEDALIA        CLEAR     83  78  85 SW6       30.06R HAZE    HX  93
6HR MIN TEMP:  81; 6HR MAX TEMP:  92;

WHITEMAN AFB   PTCLDY    81  73  78 NW3       30.05R
OSAGE BEACH    PTCLDY    79  75  89 S3        30.04F

$$
MOZ051-052-059>065-230700-
...EAST CENTRAL MISSOURI...

CITY           SKY/WX    TMP DP  RH WIND       PRES   REMARKS
ST LOUIS INTL  MOCLDY    83  72  69 S5        30.01S
6HR MIN TEMP:  83; 6HR MAX TEMP:  91;

SPIRIT OF STL  PTCLDY    81  73  76 SW5       29.99S
6HR MIN TEMP:  80; 6HR MAX TEMP:  87;

ST CHARLES     PTCLDY    77  73  87 E5        30.00R
6HR MIN TEMP:  75; 6HR MAX TEMP:  88; 6HR PCP:  0.01;


$$
MOZ072>076-082>087-097>100-106>115-230700-
...SOUTH CENTRAL AND SOUTHEAST MISSOURI...

CITY           SKY/WX    TMP DP  RH WIND       PRES   REMARKS
CAPE GIRARDEAU CLEAR     70  67  90 CALM      30.05R
6HR MIN TEMP:  69; 6HR MAX TEMP:  85;

FARMINGTON     MOCLDY    75  68  78 CALM      30.08S
6HR MIN TEMP:  73; 6HR MAX TEMP:  82;

POPLAR BLUFF   CLEAR     71  67  87 SW3       30.05S FOG
6HR MIN TEMP:  68; 6HR MAX TEMP:  84;

WEST PLAINS    CLEAR     76  68  76 S5        30.10F
6HR MIN TEMP:  74; 6HR MAX TEMP:  85;


$$


USA.gov is the U.S. government's official web portal to all federal, state and local government web resources and services.